Voltar ao catálogo

YZ-1 R/B

AtivoHEO
NORAD 41929·ROCKET BODY·🇨🇳 China

Lançado Mar 30, 2015 de Xichang Satellite Launch Center

Loading…

Próximas Passagens (próximas 24 horas)

TLE

AtualizadoSource: Space-Track

Época: Sep 17, 2026, 02:35 UTC

1 41929U 15019C   26260.10783736 -.00000615  00000-0  00000-0 0  9995
2 41929  17.2225  81.4640 7012978 320.4724 358.4276  0.27923502 11024

Acompanhe YZ-1 R/B em tempo real com AllMySat

Download on the App Store